Theta_e
352 353 353 354 353 352 352 351 350 350 351 350 349 351 351 350 351 351 351 351 350 348 347 344 341 340 340 340 340 339 340 341 341 342 341 341 344 347 348 348 345 344 343 343 344 348 350 350 350 348 346 345 344 342 341 344 345 345 345 345 345 345 344 342 340 339 338 339 340 341 341 341 341 343 343 342 341 340 338 336 335 336 338 341 342
353 353 354 354 354 354 353 352 352 351 350 350 350 351 351 350 351 351 351 350 349 347 345 343 340 339 340 341 341 339 338 340 340 340 341 340 342 345 347 346 346 345 344 343 343 347 350 350 351 351 349 346 345 343 342 342 345 346 346 345 345 345 344 343 342 341 339 338 337 338 340 341 342 343 343 342 342 341 338 336 333 332 333 335 337
354 355 355 355 355 354 353 353 352 351 350 351 351 351 351 351 353 352 350 350 349 346 344 342 340 339 340 341 341 340 338 338 338 338 339 339 340 343 345 344 345 345 344 343 343 344 346 348 350 351 351 349 346 344 342 341 343 345 346 346 345 345 345 344 343 342 342 341 339 338 338 340 341 342 342 341 341 340 338 336 333 331 329 329 331
358 358 356 355 354 353 353 353 352 351 351 352 352 352 352 352 353 354 351 350 347 343 343 341 339 340 340 339 339 339 339 338 336 336 336 337 339 341 343 343 343 344 344 343 342 343 344 345 347 349 351 351 348 346 344 342 340 342 344 345 345 346 346 345 344 344 343 343 342 340 339 339 340 340 341 341 342 341 339 337 335 332 328 327 329
359 359 357 355 355 354 353 352 352 352 352 354 354 352 352 352 351 353 351 348 345 342 342 341 340 341 340 339 339 340 340 339 337 337 335 335 337 340 340 342 343 343 344 343 341 340 342 344 345 347 350 350 349 347 346 345 342 341 342 344 344 345 346 346 345 345 345 344 343 342 341 340 340 339 339 339 340 341 341 341 340 338 334 332 332
359 360 359 356 354 355 354 353 352 353 354 355 355 351 350 351 350 351 349 345 343 343 341 342 342 342 341 340 340 341 340 339 338 337 336 336 337 339 339 340 341 342 343 342 341 338 338 341 344 347 348 349 350 349 348 347 346 345 344 343 343 344 346 347 347 346 345 344 344 343 342 342 341 340 339 338 338 338 339 341 342 342 340 338 337
359 360 358 357 355 354 354 352 352 353 353 352 354 352 349 350 350 349 347 344 343 342 341 341 342 342 342 341 340 341 341 340 339 338 338 339 339 340 340 340 340 341 342 342 343 341 338 337 340 345 349 349 350 351 351 350 349 348 348 347 346 344 345 347 348 347 346 346 345 345 344 344 343 342 341 340 338 337 336 337 338 340 341 341 340
356 354 354 357 356 353 352 353 354 354 352 353 355 352 348 349 350 348 345 344 343 343 341 340 342 342 341 341 340 340 341 339 339 339 339 339 340 340 341 342 342 343 342 342 343 344 342 339 338 341 346 349 350 350 350 349 349 348 349 349 349 347 346 346 348 348 347 347 346 346 345 344 344 344 343 342 341 340 338 336 335 335 337 338 339
353 351 353 357 357 355 354 354 355 355 354 354 354 351 349 349 349 347 345 344 344 342 340 339 341 341 340 340 340 341 340 339 339 339 340 340 340 340 340 341 343 345 345 343 343 344 343 342 340 339 342 347 349 350 349 348 347 347 348 350 350 349 348 346 346 348 348 347 346 346 345 345 344 344 344 344 343 343 341 340 338 336 335 334 335
352 352 356 357 357 357 356 353 353 355 355 353 352 352 350 347 347 345 344 344 344 342 340 341 341 341 340 339 340 342 341 340 340 340 340 340 338 337 339 340 341 344 346 346 345 345 345 344 343 341 340 342 346 348 348 348 347 347 348 350 350 349 348 346 347 348 349 348 346 346 345 345 345 345 344 344 344 344 343 342 341 340 338 337 336
356 356 359 358 357 358 356 354 353 354 354 352 351 350 348 346 346 345 345 345 344 343 341 341 341 341 341 340 342 342 342 341 341 341 339 338 336 336 338 340 339 340 342 344 346 346 347 347 347 346 344 343 344 345 346 346 347 349 349 349 350 349 348 347 348 349 348 346 345 345 346 345 345 345 345 344 343 343 343 343 343 341 341 341 340
361 359 359 358 357 357 357 357 354 353 353 351 349 348 347 346 346 345 345 345 345 343 340 340 340 340 341 341 342 342 342 342 341 340 339 336 335 335 336 338 338 339 339 340 341 342 345 345 346 347 347 347 347 347 345 345 346 348 349 349 348 348 348 347 348 348 348 346 346 346 346 346 346 346 345 345 344 343 343 343 343 343 342 342 342
361 360 360 358 357 358 359 357 354 353 352 349 348 347 346 345 344 345 344 343 343 340 339 340 341 342 343 341 342 341 342 341 341 339 336 335 335 335 335 335 335 336 337 337 338 340 341 342 343 344 346 346 347 348 347 346 346 346 347 347 347 347 347 347 348 348 347 347 347 347 346 347 347 346 346 346 346 345 345 344 343 343 343 343 343
360 359 359 359 359 359 360 358 354 351 350 348 347 346 345 344 344 343 342 341 340 338 339 341 342 343 342 340 341 341 341 341 340 338 335 334 334 334 333 333 334 335 335 336 337 338 338 340 342 343 344 344 345 347 347 347 346 345 345 346 347 347 347 347 348 348 348 348 348 347 347 347 348 347 346 346 346 347 346 346 344 343 344 344 344
361 360 359 358 357 357 357 356 353 349 348 347 346 346 345 343 342 341 341 340 340 340 341 342 342 342 339 340 342 341 342 343 339 336 335 333 332 332 332 332 333 333 334 333 334 335 336 338 341 342 343 343 343 344 345 345 343 342 342 343 345 346 346 347 347 347 347 348 347 348 348 348 348 348 347 347 346 347 347 347 346 345 345 345 345
358 357 356 354 353 352 352 352 350 348 348 347 345 344 343 342 342 342 342 340 340 340 341 341 341 341 341 342 342 337 341 343 340 336 334 332 331 331 331 332 332 332 332 332 332 333 335 337 338 339 340 340 341 341 343 343 341 341 340 340 342 343 343 344 345 346 346 347 347 347 347 347 348 347 348 348 347 347 347 348 347 347 346 346 346
355 353 352 351 351 351 350 350 349 348 348 346 343 342 342 342 342 343 343 341 339 338 338 339 340 341 342 343 342 340 341 342 339 338 336 334 333 331 330 331 332 332 332 332 332 331 333 335 335 336 337 337 338 339 340 340 341 342 340 338 336 336 337 338 340 342 343 345 345 346 347 346 347 347 347 347 347 348 347 348 348 348 348 347 347
353 352 352 350 351 351 351 350 349 348 347 345 343 342 342 342 341 342 341 341 341 339 337 337 338 340 341 341 341 341 341 340 339 341 339 335 333 331 331 331 330 331 331 331 331 330 329 331 333 333 334 334 335 335 336 336 337 337 333 328 325 327 329 330 334 337 338 340 342 343 344 345 346 346 346 346 346 347 347 347 348 348 348 348 347
352 352 351 350 350 351 350 349 347 346 346 345 343 342 341 341 341 341 341 342 342 340 338 336 337 338 339 340 340 339 340 339 340 340 339 338 336 332 329 329 328 328 329 328 329 330 329 329 330 331 332 332 332 332 333 334 334 330 322 319 319 319 321 322 325 329 331 334 336 338 339 341 342 343 344 345 345 346 346 346 347 347 348 348 348
352 352 352 349 349 351 351 349 346 345 344 344 343 341 340 342 342 342 342 343 342 341 340 339 337 337 339 339 339 340 339 338 338 337 337 338 336 332 329 328 328 328 328 327 328 330 331 330 329 329 330 331 330 330 331 332 334 331 321 316 317 317 317 318 318 320 322 324 327 329 332 333 335 337 339 341 343 344 345 345 346 346 347 347 347
353 352 352 351 350 350 350 349 347 345 343 341 340 340 341 342 342 342 342 342 341 340 340 340 337 337 340 340 339 339 337 336 336 335 335 335 334 333 330 329 329 329 329 328 327 328 330 330 329 328 328 329 330 329 329 329 332 332 323 316 317 317 316 317 316 317 317 318 319 321 322 324 326 329 332 335 338 341 343 344 345 345 346 346 347
353 352 352 352 351 350 350 349 347 344 342 340 339 339 340 341 341 341 341 340 340 340 339 339 338 338 339 340 339 337 335 335 334 333 334 335 334 332 329 329 330 330 330 329 329 329 329 330 330 330 329 328 329 328 328 328 329 329 322 317 317 317 316 316 316 316 316 316 317 317 318 318 319 321 323 326 329 333 336 339 341 343 344 345 346
352 351 351 351 350 350 349 347 347 344 340 340 339 338 339 339 340 340 340 340 339 339 339 338 339 339 338 338 337 335 334 334 333 333 334 334 334 333 331 330 330 331 330 330 332 332 331 331 330 331 330 329 329 328 327 327 327 326 322 319 319 318 318 317 316 316 316 316 316 316 316 317 317 317 318 319 321 323 326 330 333 336 339 341 343
352 350 350 350 350 350 348 345 345 344 340 339 340 339 338 338 339 339 340 340 340 340 339 338 339 339 338 336 335 333 333 333 333 333 333 333 334 334 332 331 331 331 331 331 333 333 333 332 331 330 330 330 329 328 328 327 327 328 326 324 323 321 320 318 316 316 316 316 316 316 317 317 317 317 316 317 317 318 319 321 324 327 330 334 337
352 350 349 348 348 349 347 344 344 343 339 339 339 339 339 338 338 339 339 339 339 340 340 339 338 338 337 335 334 333 332 333 332 332 332 334 335 335 334 334 334 333 332 332 333 334 334 333 332 331 331 331 330 329 329 329 329 329 329 328 327 325 324 321 318 316 316 316 316 316 317 317 317 317 317 317 317 317 317 317 318 319 321 324 328
352 350 349 348 347 347 347 346 343 341 339 340 340 340 340 340 338 338 338 338 338 339 339 338 337 337 336 335 334 333 333 333 333 333 333 333 334 335 336 335 335 334 333 334 334 335 335 333 332 332 332 333 332 330 329 328 329 330 329 329 328 328 329 327 324 319 317 316 316 316 316 317 317 317 318 318 318 318 318 317 317 317 318 318 320
353 351 350 348 346 346 346 345 343 340 340 341 341 340 341 340 340 338 336 336 338 338 338 337 337 337 337 336 336 335 334 334 334 334 334 334 334 335 336 336 336 335 334 334 335 335 334 333 332 332 332 333 333 332 331 330 329 330 330 329 330 330 331 331 330 326 321 318 316 316 316 316 317 317 317 317 317 318 318 318 318 318 318 318 318
353 352 351 349 347 345 344 344 342 342 342 342 341 341 341 340 340 338 336 336 337 337 337 337 337 337 337 337 338 337 337 336 336 335 335 335 335 335 335 336 336 336 335 335 335 334 333 332 330 331 332 332 333 333 332 331 331 331 331 331 332 332 332 331 331 330 327 322 319 317 317 316 316 316 317 317 317 318 318 318 318 318 318 318 318
353 352 351 349 348 345 344 344 343 343 343 342 342 341 341 340 339 338 337 336 336 337 338 338 337 336 336 336 336 337 337 337 337 336 336 336 336 336 336 336 336 336 336 335 335 334 332 331 329 329 329 330 332 333 332 332 332 331 331 332 332 332 332 331 330 330 329 325 321 319 318 317 317 317 316 317 317 317 317 318 318 318 318 318 318
353 352 352 350 348 346 345 345 344 344 343 342 342 341 340 340 339 338 338 336 336 337 337 338 338 337 336 335 335 335 335 336 336 335 336 336 337 338 338 337 337 336 337 336 335 333 332 332 330 329 329 330 331 331 332 332 331 331 331 332 332 333 332 331 330 330 328 325 322 321 320 319 318 318 317 317 317 317 317 317 317 318 319 319 318
355 354 352 350 348 347 346 346 344 344 343 342 342 341 339 339 339 338 338 336 336 336 336 336 337 337 337 336 336 336 335 335 335 335 335 336 337 338 338 338 337 337 337 336 336 335 333 332 332 331 331 331 331 331 331 331 331 331 331 331 332 333 333 332 331 329 328 327 327 326 325 323 321 319 318 318 318 318 318 318 318 318 318 319 319
356 355 353 350 348 347 347 345 343 343 342 341 341 341 339 339 339 338 337 336 336 336 335 335 335 335 336 336 336 336 335 335 335 335 336 336 336 336 336 336 337 336 336 337 337 336 334 332 332 331 331 331 331 331 331 332 332 332 331 331 332 332 333 334 333 332 331 331 330 329 328 327 326 324 322 320 320 319 319 319 319 319 318 318 319
357 356 354 351 349 347 346 344 342 343 342 341 340 340 339 339 339 339 338 337 337 337 336 335 334 334 335 336 336 336 335 335 336 335 335 335 334 334 334 334 335 335 336 337 337 336 335 333 332 331 330 330 331 331 331 331 332 332 332 332 332 331 332 333 333 332 332 331 331 330 329 329 328 327 326 324 323 322 321 321 320 320 319 319 319
357 356 354 350 348 347 346 344 343 342 342 341 340 339 339 338 339 339 338 338 337 337 336 336 335 335 335 335 336 336 336 335 335 335 335 334 333 332 332 333 333 333 334 334 334 335 335 333 332 332 331 330 330 331 331 331 331 331 332 333 333 333 332 332 332 331 330 330 330 330 330 330 329 329 328 327 325 324 324 323 322 321 320 320 320
356 355 353 350 347 346 346 344 343 343 343 342 341 339 339 338 338 339 339 338 338 338 337 336 336 336 335 335 336 336 335 335 335 335 334 334 333 333 333 333 333 333 333 333 333 334 334 334 333 333 332 331 331 331 331 331 331 332 332 333 333 333 333 332 332 332 331 331 330 330 330 330 329 329 328 327 326 326 325 325 324 323 321 321 322
354 353 352 350 347 345 346 344 342 344 344 343 341 340 340 339 339 339 339 338 338 338 337 336 336 336 336 335 336 335 335 335 335 334 334 333 333 333 334 334 334 335 335 335 335 336 336 336 334 334 334 334 333 332 331 332 331 331 331 332 332 332 332 332 332 332 332 331 331 330 330 328 327 327 326 326 326 326 325 325 325 324 323 323 323
354 352 351 350 347 345 346 345 344 345 344 342 342 341 340 340 340 340 340 339 339 338 337 337 336 336 336 336 336 335 334 334 334 334 334 333 333 334 335 336 336 336 336 336 336 336 337 337 336 335 335 335 334 332 331 331 331 331 330 331 332 332 332 331 331 331 331 330 330 329 328 328 327 327 326 326 326 325 325 325 324 324 324 324 324
355 353 351 350 348 346 344 345 346 346 343 342 343 343 341 340 339 340 340 339 338 337 337 337 337 336 336 336 336 335 334 334 334 333 333 333 333 334 336 338 338 338 339 338 336 335 337 338 338 337 335 334 334 333 331 330 330 330 330 330 331 332 331 330 330 330 330 330 329 329 329 329 328 328 328 327 326 326 325 325 325 324 324 324 324
355 354 351 350 348 345 345 346 347 345 343 342 344 344 341 339 339 341 340 339 338 337 336 336 336 336 336 336 336 335 335 335 335 334 333 333 333 334 336 337 338 339 340 339 336 336 337 337 335 334 333 333 333 332 330 328 329 330 331 332 333 331 330 329 329 330 330 330 330 329 329 329 328 328 327 327 327 326 326 325 325 324 324 325 325
354 353 352 351 348 346 347 348 347 344 343 343 344 344 340 338 340 341 340 339 337 335 334 333 333 334 335 334 334 334 334 335 334 333 333 333 334 335 335 335 335 337 338 338 336 335 334 333 332 332 331 331 331 330 329 328 328 329 330 331 331 329 328 329 330 330 330 330 330 329 329 329 328 328 328 327 327 327 326 326 325 325 325 325 325
353 352 352 351 349 348 348 348 346 344 344 344 344 342 340 340 341 341 340 340 337 334 332 330 330 332 333 334 333 332 333 334 332 332 333 332 333 334 334 333 334 334 335 335 334 333 332 332 331 331 331 330 329 329 328 328 328 328 328 328 328 329 330 330 330 329 329 329 329 328 328 328 328 328 329 329 328 328 327 326 326 325 325 325 325
353 352 352 351 349 349 348 348 346 343 343 344 342 340 341 341 341 340 340 338 335 333 333 332 331 332 333 334 334 331 332 333 332 331 332 331 331 331 330 331 332 333 334 334 334 333 332 331 330 330 330 329 329 328 328 328 327 327 327 327 329 330 331 331 329 328 328 328 328 328 328 329 328 329 329 329 329 328 327 327 326 326 326 326 325
353 352 351 350 350 349 348 348 346 343 344 344 340 340 340 338 339 341 339 337 337 338 338 337 335 334 333 334 333 332 331 333 334 334 332 330 331 330 328 327 328 329 330 331 332 332 332 330 329 329 329 329 328 328 327 327 327 327 328 329 330 331 330 329 328 328 328 328 329 329 329 329 329 329 329 328 328 327 326 326 325 325 325 325 324
353 352 351 350 350 349 348 348 346 345 345 341 340 341 338 335 338 340 337 337 339 338 337 336 333 331 331 333 334 333 332 333 336 337 335 333 333 333 331 329 328 328 327 328 329 330 330 330 329 329 329 329 328 327 327 328 329 329 329 329 329 329 328 328 328 328 328 328 328 328 328 328 328 327 327 326 326 326 325 324 324 324 324 324 323
352 352 351 349 349 349 347 347 345 345 343 341 341 341 333 330 336 337 334 333 334 333 333 332 330 330 333 335 334 334 334 334 335 336 336 335 335 335 334 333 332 331 330 329 328 327 328 329 329 329 329 329 329 329 329 330 330 329 328 328 328 327 327 327 328 327 327 326 326 326 325 325 325 325 325 325 325 324 323 323 323 322 323 323 323
352 352 351 349 349 348 347 346 344 342 342 341 340 335 327 326 331 334 333 331 330 332 332 328 327 331 335 336 335 334 334 334 334 333 333 334 335 335 334 333 333 334 333 331 329 327 327 328 329 329 329 329 329 329 329 328 327 327 326 326 325 325 325 325 325 325 325 325 325 325 325 325 325 325 325 325 323 321 321 322 321 321 321 321 322
352 351 350 349 349 347 347 346 342 340 341 340 335 328 324 325 328 331 332 328 328 331 330 326 327 331 334 335 335 334 334 335 334 333 331 333 334 333 332 333 333 333 331 330 329 329 328 328 328 327 327 327 327 326 325 324 323 323 323 323 323 323 324 323 324 324 324 324 324 325 325 325 324 324 323 322 320 320 320 321 320 320 320 321 322
353 352 350 349 348 347 346 344 341 340 339 336 330 325 322 323 327 331 331 329 329 332 331 329 330 332 333 334 334 334 335 334 333 332 332 333 333 332 331 332 331 330 330 329 328 328 327 327 326 325 324 324 323 322 321 320 320 321 322 322 322 323 323 323 323 323 322 322 321 321 321 321 320 320 320 319 319 319 319 320 319 320 321 322 322
353 352 350 349 347 346 345 343 340 339 337 332 327 323 321 322 326 329 330 330 330 331 330 329 329 330 331 333 334 335 335 333 331 332 334 335 334 332 331 331 330 329 329 328 327 327 326 325 324 322 322 321 320 320 319 319 320 320 321 322 322 322 321 322 323 322 322 321 319 319 319 319 319 319 319 319 319 319 319 319 319 320 322 322 322
353 352 350 348 346 345 344 342 339 337 334 330 324 321 320 321 325 328 328 328 328 328 328 327 326 326 327 331 334 335 334 333 331 331 333 335 333 330 329 329 329 328 327 326 326 325 325 325 324 323 321 320 320 320 319 319 319 319 321 322 322 321 321 322 322 322 321 320 319 318 319 319 319 319 319 319 318 318 318 319 320 322 322 322 321
351 350 347 345 344 343 342 341 338 335 333 330 324 322 321 322 326 329 328 328 328 327 325 323 323 325 327 330 332 333 333 333 332 332 334 333 330 328 328 329 328 327 326 326 326 326 325 325 324 322 321 321 320 320 320 319 320 320 320 321 322 323 323 323 322 320 319 318 318 317 318 318 318 317 318 318 317 318 319 321 322 323 323 323 322
Wind_Speed
4 4 4 4 3 4 5 5 4 4 3 4 4 4 5 5 5 6 7 7 7 7 8 8 9 7 6 7 8 9 8 6 6 6 6 5 4 6 6 4 3 4 6 7 8 8 10 12 12 13 13 14 14 14 14 14 14 14 14 14 14 14 14 13 13 13 13 12 13 13 12 12 12 13 13 12 12 11 11 10 9 9 9 9 8
4 3 4 3 4 5 5 5 4 4 5 5 4 4 5 5 5 6 6 7 7 7 8 9 8 7 6 7 9 9 8 7 6 6 6 4 3 5 7 7 3 4 6 7 7 7 8 11 12 13 14 15 15 15 15 15 15 15 15 15 14 14 14 14 14 13 13 13 13 13 12 12 12 13 13 13 13 12 12 11 10 10 10 10 9
5 3 4 4 5 5 5 5 5 5 5 5 5 5 5 5 5 5 6 6 7 7 7 8 7 7 7 7 7 8 8 7 7 7 6 4 3 4 7 9 6 3 4 6 7 7 7 10 12 13 14 15 16 16 16 16 16 16 16 16 15 15 15 15 15 14 13 13 13 13 13 13 13 13 13 14 13 13 13 12 12 11 11 11 11
4 4 5 5 5 6 6 6 6 6 6 6 5 6 5 5 4 4 6 6 6 7 6 7 7 7 8 8 7 7 7 7 7 7 5 4 4 3 5 8 7 6 5 5 6 6 6 8 10 12 13 14 16 17 17 17 17 17 17 16 16 16 16 15 15 14 14 14 14 14 14 13 14 14 14 14 14 14 14 14 13 12 12 11 11
5 5 6 6 6 6 7 8 8 7 6 5 6 7 6 6 5 4 6 6 6 6 6 7 7 7 8 8 7 7 7 6 6 6 6 5 4 3 3 4 6 8 7 6 5 6 6 7 8 11 13 13 14 16 17 17 17 18 18 18 17 17 16 16 15 15 14 14 14 14 14 14 14 15 15 15 15 15 16 16 15 14 13 12 12
6 6 6 7 8 8 9 10 9 7 7 7 8 9 7 6 5 4 6 6 6 6 7 7 6 6 8 8 7 7 6 7 5 5 5 5 4 4 4 4 4 7 7 8 7 6 6 7 8 9 12 13 14 15 16 16 17 18 19 19 19 18 16 15 14 14 14 14 14 14 15 15 15 15 16 16 16 16 16 17 17 16 15 14 13
8 8 8 8 9 10 10 10 9 8 8 8 8 8 8 7 4 4 6 6 6 6 7 6 6 6 7 7 7 6 6 6 5 4 3 3 4 4 4 4 4 4 5 8 9 7 6 6 7 9 10 11 13 14 14 15 16 17 18 19 19 18 17 15 14 14 14 14 14 14 15 15 16 16 16 16 16 16 16 17 17 17 17 17 15
11 12 11 9 10 13 11 8 8 9 8 8 9 8 8 7 3 5 7 6 6 6 7 7 6 7 6 6 6 6 6 5 4 5 4 5 4 2 2 3 4 5 5 5 7 7 5 5 6 8 10 10 11 12 13 15 16 18 19 18 18 17 16 15 15 15 15 15 15 15 16 17 17 17 17 17 17 17 17 17 17 18 18 18 18
13 13 12 10 10 12 12 11 8 8 9 10 10 9 7 5 4 6 6 5 5 6 7 7 6 7 7 7 6 5 6 5 5 5 4 3 3 2 2 3 3 4 5 4 3 4 4 5 5 7 10 9 9 10 12 15 16 18 18 17 16 15 14 17 19 17 16 16 17 18 18 18 18 19 19 18 18 18 18 18 18 18 18 19 19
14 13 11 10 10 10 12 13 10 8 10 11 10 8 5 5 5 6 4 4 5 6 6 6 7 6 7 7 5 5 5 4 4 4 3 1 3 3 1 3 3 4 5 4 3 1 2 4 4 5 7 8 7 9 10 13 14 16 16 16 16 14 13 18 20 17 15 17 20 20 20 21 21 21 21 20 20 20 20 20 19 18 18 19 19
13 11 11 10 9 10 10 11 10 10 11 12 10 6 4 4 5 4 4 4 4 5 5 6 7 7 7 6 4 4 4 4 3 3 4 2 3 5 2 5 4 4 5 5 4 3 2 3 3 2 4 5 5 7 9 11 11 11 11 12 12 11 14 17 18 15 15 19 22 21 21 21 22 22 23 23 23 23 22 22 21 20 19 19 19
11 10 11 11 10 10 9 9 12 12 10 10 8 3 2 3 4 4 4 5 4 4 4 6 7 6 6 5 2 2 3 2 2 2 3 1 2 5 5 5 5 5 5 5 5 5 5 4 4 3 0 1 2 2 5 8 9 9 8 9 8 9 12 14 14 14 16 20 21 20 21 21 21 22 22 22 24 24 24 24 23 22 21 21 20
12 11 11 11 9 8 8 10 12 12 9 6 3 1 1 2 2 3 4 4 4 5 4 5 6 5 4 4 3 3 2 3 4 3 2 1 1 2 4 5 6 5 4 5 5 5 5 5 5 5 4 2 1 2 3 1 5 7 7 8 8 9 11 11 12 14 16 18 18 18 21 21 21 21 21 21 22 23 23 24 24 24 24 23 23
11 11 10 9 8 7 7 7 8 7 4 1 1 2 1 1 2 3 3 3 4 5 4 4 6 6 3 3 3 4 3 5 5 4 3 1 1 1 3 4 5 5 5 4 4 5 6 6 6 5 5 4 3 2 3 3 2 2 3 5 5 6 7 8 10 12 13 14 15 16 18 19 20 20 20 21 20 20 21 23 24 24 25 25 25
8 8 7 7 6 6 5 4 3 3 3 2 2 1 0 1 2 2 2 4 5 4 3 4 6 5 2 2 3 3 3 4 4 4 2 0 1 2 4 4 4 5 5 5 5 5 5 6 6 6 6 5 4 3 2 3 3 3 2 2 3 3 4 5 6 7 9 11 13 14 15 16 17 17 18 19 20 21 21 22 23 24 24 25 26
7 6 6 5 5 6 5 3 4 4 3 2 1 1 1 2 2 2 3 5 5 5 3 3 4 4 3 3 5 4 1 3 5 4 1 1 1 3 4 2 3 5 5 5 5 4 4 5 5 5 6 5 5 4 3 3 2 3 4 4 2 3 4 6 6 6 7 8 10 12 13 14 15 15 15 16 19 22 22 22 22 23 24 25 25
7 6 6 6 5 5 5 5 6 5 3 2 2 2 2 3 2 2 3 5 5 3 2 2 3 3 4 3 4 2 2 3 2 2 2 4 2 2 1 1 2 3 3 3 3 3 3 4 4 4 4 4 4 4 3 3 2 2 4 6 5 4 4 5 7 7 8 9 9 10 11 11 12 12 13 14 17 20 22 23 23 23 23 24 25
7 7 7 6 5 5 5 6 6 5 3 2 2 3 3 4 3 3 4 3 4 5 3 3 2 2 4 3 3 3 3 6 4 0 2 5 5 3 2 2 2 1 1 1 1 2 3 3 3 3 3 3 3 3 3 3 2 1 3 6 5 4 4 3 5 7 9 10 10 10 10 10 10 11 12 13 15 17 19 21 22 23 23 24 25
7 7 7 6 5 5 6 7 6 5 4 3 3 4 4 3 4 4 3 2 2 3 4 4 2 3 4 3 3 3 4 4 4 2 1 3 4 5 4 3 2 2 1 2 1 2 3 3 3 3 1 2 2 2 2 3 2 3 4 5 5 4 4 2 2 5 7 9 10 11 11 11 11 11 11 12 13 15 16 18 20 22 22 23 24
7 7 7 6 6 6 7 7 6 5 4 4 4 5 4 3 3 3 2 2 2 3 4 4 3 3 2 1 3 2 3 2 1 3 3 3 2 3 5 2 2 2 2 4 3 2 2 1 2 4 2 1 1 1 1 2 2 3 4 5 4 4 4 3 2 2 4 6 7 9 10 11 11 11 12 13 13 14 15 15 16 18 19 20 22
7 7 7 7 7 7 8 7 6 5 4 5 5 5 4 4 4 3 3 3 3 3 4 3 5 3 3 1 3 1 3 2 0 2 3 3 3 2 3 2 3 3 2 3 4 4 4 2 2 4 3 2 2 1 1 0 1 1 2 4 4 4 3 3 3 2 3 4 5 6 8 9 10 11 12 13 14 15 16 15 15 16 17 18 20
8 8 8 8 9 8 8 8 7 6 6 6 5 5 5 5 5 5 5 4 3 4 4 4 5 4 2 2 2 1 2 3 3 4 2 2 4 5 5 4 4 2 1 4 4 5 6 5 4 4 3 3 4 3 3 2 2 2 4 5 4 4 4 3 3 3 4 4 4 5 6 8 9 10 11 12 13 15 16 17 17 17 18 18 19
8 8 9 10 10 10 9 8 8 7 7 6 6 6 6 7 6 6 6 5 5 5 4 5 4 3 2 3 2 3 2 2 4 4 3 3 4 5 7 8 8 6 5 5 5 6 7 6 6 5 4 4 5 4 4 4 5 7 7 7 6 6 5 5 5 4 4 5 5 6 7 8 9 9 10 11 13 14 15 17 18 19 20 20 21
9 9 9 10 11 11 10 9 8 7 7 6 6 6 6 6 6 5 6 6 6 5 5 5 4 4 6 5 4 4 3 2 4 4 3 4 4 5 7 8 8 8 8 7 7 8 7 7 7 5 3 5 5 5 6 6 8 10 7 7 9 9 8 7 7 6 6 5 5 6 7 8 9 10 10 11 12 13 15 16 17 19 20 21 23
11 11 11 11 11 11 10 9 9 8 8 7 7 7 6 5 5 6 6 6 6 6 5 5 5 5 6 5 4 5 4 4 5 5 4 4 4 6 7 8 8 8 10 10 8 8 10 11 9 6 4 6 7 7 7 8 9 11 9 8 11 13 12 10 9 9 8 7 7 6 6 7 8 9 10 11 11 12 14 15 16 17 19 20 22
12 12 11 11 11 12 11 10 10 9 8 7 7 7 7 6 6 6 7 7 6 6 6 6 6 5 5 5 5 5 5 4 5 6 6 6 6 7 7 8 9 10 11 9 6 8 11 11 10 9 8 8 8 8 8 9 10 11 11 11 12 15 14 13 12 12 11 11 10 8 7 7 8 8 8 9 9 10 12 13 15 16 17 19 20
13 13 12 11 11 11 11 10 10 8 8 8 7 7 8 8 7 7 7 7 6 7 7 7 7 6 6 6 6 7 6 5 6 6 7 7 8 8 6 6 6 8 9 8 6 7 9 11 10 9 8 8 8 8 9 10 11 12 15 15 14 14 15 15 16 15 15 14 14 12 10 9 9 8 8 7 7 8 8 10 12 14 15 17 19
13 12 12 12 12 11 11 10 10 9 9 9 9 8 8 8 8 8 9 8 8 8 8 8 8 8 8 7 8 9 8 7 7 7 8 8 8 8 7 6 6 6 6 7 7 7 8 10 8 4 5 7 8 9 10 11 12 13 15 16 14 14 16 17 18 19 18 17 16 16 15 13 12 11 10 9 9 9 9 9 10 11 13 14 16
12 12 12 12 12 12 12 11 11 11 11 11 10 9 9 9 10 10 10 10 9 9 9 9 10 9 9 9 9 9 9 8 8 7 8 8 8 8 8 8 8 6 5 5 6 7 8 10 10 7 5 6 7 9 11 12 13 14 15 16 16 16 16 17 19 21 22 21 20 19 20 19 17 16 15 14 13 13 13 13 13 13 13 14 14
12 12 12 12 12 13 13 12 13 13 13 13 12 12 11 10 11 11 11 10 10 10 10 10 10 10 10 10 10 9 9 8 8 8 8 8 8 9 9 8 8 7 7 5 5 7 8 9 11 11 9 8 8 10 11 12 14 15 15 17 17 18 17 18 20 23 24 25 23 21 21 22 22 21 20 19 19 18 18 17 17 16 16 15 15
12 13 14 13 13 14 14 14 14 15 15 14 14 13 13 12 11 12 12 12 11 11 10 10 11 11 11 11 11 10 10 9 9 9 8 7 8 9 9 8 8 8 8 7 6 6 8 9 11 12 12 13 12 13 14 14 14 15 15 17 18 19 20 21 23 24 25 24 22 21 21 21 22 22 23 23 23 22 22 21 21 20 19 18 17
14 15 16 15 16 16 17 17 16 17 17 17 16 15 14 13 12 13 13 13 13 12 11 11 11 11 11 11 11 11 10 10 10 8 8 8 8 9 9 9 9 9 9 9 8 8 11 11 11 13 14 14 13 13 14 14 14 15 15 17 18 19 20 20 21 22 23 23 23 23 23 23 22 22 23 23 24 24 25 24 24 24 23 22 21
18 18 18 19 21 22 21 21 20 20 21 21 19 18 17 16 16 15 14 14 13 13 12 12 11 11 11 11 11 11 11 11 10 9 8 9 9 9 9 9 10 9 9 10 10 11 14 14 12 13 14 14 14 13 14 15 15 15 15 16 17 18 18 19 20 21 21 22 22 23 23 24 24 24 24 25 25 25 26 27 27 27 26 25 24
20 22 23 25 26 27 25 24 23 24 25 24 22 21 21 21 20 18 16 15 13 13 13 11 11 11 11 11 12 12 12 12 12 10 10 10 10 10 9 9 10 10 9 10 10 11 13 15 15 16 15 15 15 14 14 16 16 15 16 16 16 17 17 18 20 20 20 20 20 21 22 23 24 25 27 27 26 25 26 28 28 28 28 26 26
23 27 29 30 30 30 29 27 27 26 26 25 23 22 22 22 21 19 17 16 14 13 13 12 12 12 12 12 12 12 12 12 12 11 10 10 9 9 10 10 11 12 11 12 12 12 14 15 16 16 16 15 16 15 15 15 16 16 16 16 16 17 17 18 19 19 20 21 22 23 24 25 26 27 27 27 26 25 26 27 29 29 29 27 26
30 34 34 34 34 33 31 29 28 26 24 23 22 22 22 21 21 20 19 17 15 13 12 12 12 12 12 12 13 13 13 13 13 12 11 10 10 10 11 11 12 13 13 12 13 13 14 15 15 16 15 15 16 17 16 16 16 16 16 16 17 17 18 18 19 20 20 21 23 24 25 24 25 26 26 26 27 26 27 28 30 30 30 29 27
36 39 38 35 34 33 31 28 28 26 24 23 22 21 21 20 20 20 19 17 15 13 11 11 11 12 12 13 13 13 13 13 13 12 11 11 11 11 12 12 12 12 12 12 13 15 16 16 16 16 16 15 16 17 16 16 16 16 16 16 17 18 18 19 20 20 21 22 23 24 24 24 25 26 27 27 28 28 28 30 31 31 30 30 30
34 37 38 34 32 33 32 29 28 27 24 23 23 22 21 21 20 19 18 17 15 14 12 10 11 12 13 14 15 15 15 15 14 13 12 12 12 12 12 12 11 11 11 12 14 16 16 14 15 16 17 17 16 16 15 16 17 17 17 17 17 17 17 18 20 21 20 21 21 22 23 24 25 26 27 29 30 30 31 33 34 32 31 32 33
31 33 34 33 33 34 32 30 28 27 25 24 24 23 22 22 21 20 19 18 17 16 14 12 11 12 14 16 17 17 16 16 15 14 13 13 13 14 13 12 11 11 11 11 12 13 13 13 14 17 17 17 17 18 17 17 18 18 17 17 16 16 17 19 20 20 20 20 21 22 24 24 26 27 29 30 31 32 34 36 35 33 32 33 34
32 31 31 32 34 33 30 29 28 27 27 25 25 25 24 22 22 21 20 19 19 18 16 15 13 13 15 18 19 19 18 17 17 17 16 15 14 14 13 13 13 12 11 12 13 13 14 14 15 16 17 17 17 17 17 16 16 16 16 16 18 19 20 20 19 19 20 21 22 24 24 24 25 27 27 28 29 31 32 32 32 32 34 36 36
32 29 28 29 31 30 28 28 28 27 27 26 26 26 25 23 22 22 21 20 20 20 18 16 15 14 15 19 21 20 19 18 19 19 19 18 17 15 14 14 14 13 13 14 14 14 14 14 15 15 15 16 16 16 16 15 15 16 17 19 21 21 19 19 20 20 22 23 24 25 24 23 24 24 25 25 27 28 28 29 30 32 33 34 33
26 24 24 25 27 28 28 29 29 28 27 27 27 27 28 26 22 21 21 21 21 21 18 16 15 14 15 19 22 23 22 21 21 22 22 21 20 21 20 17 16 14 14 14 14 14 13 14 15 15 15 16 16 16 16 16 16 17 18 19 19 18 17 18 20 20 21 22 24 24 22 22 23 24 24 24 25 26 28 29 30 30 30 30 31
21 20 20 23 24 25 26 27 28 28 26 27 29 30 31 28 23 22 23 21 19 18 16 13 12 12 13 16 21 23 22 21 21 22 24 24 24 24 24 23 20 18 17 16 14 14 13 14 15 16 16 17 17 17 18 18 18 18 16 15 16 18 18 17 17 18 18 19 21 23 22 22 22 24 25 25 25 26 27 28 30 31 32 33 35
19 19 20 21 22 23 25 26 27 27 26 28 31 33 34 29 23 22 21 18 15 14 13 12 10 10 10 13 16 18 19 21 21 18 19 22 24 25 25 24 22 20 19 19 17 15 14 15 16 17 17 17 18 17 17 17 17 17 16 15 16 18 19 17 17 18 18 18 20 23 24 24 23 25 27 26 26 27 28 30 31 33 34 36 38
17 18 19 21 22 24 26 26 25 26 26 29 33 35 34 29 23 20 19 17 15 14 14 12 9 9 11 12 14 17 20 21 19 15 17 22 23 22 21 21 20 19 19 19 18 17 18 17 17 17 17 17 17 16 15 14 15 17 16 16 17 18 19 19 20 21 22 21 22 24 25 25 24 25 27 26 26 28 28 29 30 32 35 37 39
17 19 20 22 24 27 27 24 22 23 25 29 34 36 35 31 25 20 17 17 15 14 13 11 8 10 12 12 13 17 21 21 17 17 21 23 20 19 19 20 20 18 17 17 18 19 21 22 20 19 17 16 15 15 14 14 15 16 16 17 18 20 22 23 24 26 26 23 23 23 23 24 25 26 27 27 28 29 29 30 32 34 37 39 40
19 20 22 23 24 25 24 22 20 20 22 27 32 34 32 28 23 18 16 17 17 16 14 11 9 11 13 14 15 18 21 21 19 21 25 24 21 18 18 18 17 15 16 17 18 18 19 21 21 20 18 16 16 16 16 15 15 16 16 18 19 21 24 26 25 26 25 24 24 23 22 23 25 25 27 29 29 29 30 31 33 36 37 38 39
17 18 20 21 22 21 20 21 20 18 20 26 31 31 29 25 21 18 17 18 19 18 14 10 9 10 12 15 17 18 17 15 15 18 23 24 22 18 15 14 14 15 16 17 17 17 17 18 18 16 15 15 17 18 18 18 17 17 16 17 18 21 23 23 22 23 24 24 24 24 24 25 25 26 28 30 30 31 32 32 34 36 36 37 38
16 17 18 20 20 19 20 23 22 19 22 28 32 32 29 27 24 21 19 18 18 16 12 9 9 10 14 15 14 13 12 13 16 19 21 22 20 15 13 13 13 15 16 16 17 18 17 16 15 14 15 16 17 18 18 18 18 18 17 17 17 19 20 19 18 21 24 24 25 26 26 25 25 26 28 29 31 32 33 34 35 33 33 37 40
14 13 13 14 15 17 21 23 20 19 22 26 29 30 30 29 25 23 21 20 18 14 10 9 10 12 16 15 11 10 14 18 21 20 19 20 17 13 13 13 14 16 17 16 17 16 13 12 12 13 16 16 16 17 19 20 19 19 21 22 20 19 19 17 18 21 24 26 25 23 23 24 24 25 27 29 30 32 32 33 34 33 34 38 41
12 9 8 10 12 16 19 21 20 20 22 25 28 30 30 28 24 23 23 20 15 10 9 11 13 14 16 16 14 13 16 18 18 15 16 17 16 13 12 14 15 17 16 14 13 12 11 12 13 14 15 15 15 17 20 21 21 22 26 28 26 21 19 19 21 20 19 20 21 20 20 24 24 24 25 23 20 23 29 31 31 31 34 37 40
Wind_Direction
242 241 245 241 242 246 251 251 253 260 270 279 280 290 294 295 303 310 314 313 315 321 322 314 309 311 320 325 321 311 305 306 307 306 303 294 280 285 300 318 278 224 222 221 213 208 207 211 215 215 215 215 214 213 210 208 209 209 209 210 212 212 213 213 213 214 216 219 221 222 221 223 220 214 219 221 217 216 217 219 225 232 238 241 245
254 255 255 254 248 245 249 251 246 249 260 268 273 277 280 288 294 300 310 309 314 326 319 312 314 321 332 328 319 316 314 310 305 294 284 279 268 274 299 319 301 230 230 229 224 216 209 211 214 216 217 217 218 216 214 213 212 212 212 214 214 214 216 217 217 218 219 222 223 226 226 226 224 221 224 226 225 226 225 226 228 233 238 242 246
261 262 254 257 252 249 249 249 251 252 259 266 269 267 275 284 282 294 304 303 312 319 312 310 312 325 331 320 316 320 319 315 304 289 277 286 301 282 294 309 309 283 254 243 238 231 219 212 212 217 219 218 218 218 216 217 217 216 215 215 216 216 217 219 219 220 221 224 226 228 230 229 230 228 229 232 233 234 235 234 233 235 237 240 245
256 253 248 256 256 256 255 255 258 258 266 268 262 261 267 269 264 288 296 298 309 308 306 307 315 332 326 322 326 323 322 322 309 303 304 298 293 287 284 291 300 308 296 266 251 247 241 226 217 215 219 220 218 218 219 220 222 222 220 218 218 218 218 219 220 221 222 224 228 230 233 233 234 235 236 239 240 241 242 242 240 240 239 238 242
239 238 242 254 255 255 256 255 256 256 260 260 261 261 255 260 264 274 288 299 308 309 315 314 328 333 320 329 332 322 325 318 310 319 322 303 291 300 288 275 282 294 298 290 271 257 250 242 230 218 216 220 219 219 220 223 225 225 227 225 223 222 221 221 222 223 224 225 229 232 235 236 238 240 242 245 246 247 249 250 248 247 246 243 243
227 231 239 254 255 254 253 252 254 251 247 251 259 262 258 266 274 281 292 298 305 315 317 316 334 325 314 327 322 326 328 313 330 336 312 308 317 321 306 287 269 273 279 284 282 269 256 247 244 231 220 219 219 221 222 225 229 229 231 231 229 227 224 224 225 227 228 229 231 234 237 238 240 242 244 246 248 250 253 255 255 254 253 250 248
223 231 242 255 260 258 255 254 252 241 247 256 250 257 275 277 274 284 286 294 308 314 311 314 330 319 316 319 313 326 320 316 342 318 308 350 332 329 327 319 307 285 278 276 271 264 267 260 249 238 229 224 221 224 227 229 234 235 235 234 232 231 229 231 231 232 234 235 236 237 239 240 241 243 245 247 248 249 251 254 256 257 257 256 254
235 239 246 254 260 263 261 258 252 242 249 256 246 254 275 275 287 290 285 302 312 306 310 317 319 311 308 304 310 322 311 318 319 305 5 22 326 328 13 346 333 318 310 287 264 259 269 278 261 241 234 231 225 226 230 232 233 235 236 237 237 233 232 237 239 237 237 238 239 239 240 241 242 243 244 246 248 249 250 252 255 256 258 258 258
246 248 252 252 255 263 262 253 250 251 248 248 253 260 264 268 287 281 286 311 305 304 314 315 311 308 303 300 315 324 310 314 314 324 3 1 316 335 61 28 8 350 337 322 287 274 282 296 286 253 238 235 232 228 233 236 234 235 237 240 243 237 232 237 238 236 238 243 244 243 244 246 247 247 247 246 247 249 250 252 254 255 257 259 260
251 255 251 249 250 255 257 249 245 251 248 248 257 266 272 278 277 274 289 305 300 311 318 314 308 300 295 299 315 315 304 310 326 327 307 325 357 325 86 66 19 22 19 5 3 344 287 300 310 272 244 240 241 237 240 245 242 240 240 242 245 241 237 240 239 236 239 247 249 247 247 248 250 251 250 250 249 249 251 252 253 255 257 258 260
248 249 239 238 243 247 251 247 244 246 249 253 256 264 292 288 281 292 300 288 292 312 314 305 295 287 288 297 312 299 296 315 333 311 293 358 18 315 12 80 41 21 26 20 23 33 7 325 329 295 233 229 247 250 249 251 247 243 243 246 248 244 242 247 249 244 241 246 247 246 248 249 250 250 250 251 251 251 253 254 255 256 257 257 259
229 232 231 232 238 242 243 239 241 245 250 261 265 275 297 281 289 302 292 281 278 285 291 289 289 294 289 285 278 260 279 306 285 263 283 330 30 338 353 44 43 23 17 21 18 21 18 4 359 359 352 215 260 285 273 257 248 246 247 254 257 248 246 249 254 250 242 246 249 247 249 251 251 252 252 252 252 253 254 256 257 258 257 257 258
222 221 224 227 231 238 242 244 246 247 249 261 279 0 305 289 305 287 275 281 272 257 262 277 285 283 268 258 223 197 217 229 229 240 285 311 32 21 3 10 25 17 16 26 20 24 22 14 10 6 17 7 343 21 9 291 233 242 249 256 259 254 253 251 250 249 247 252 255 251 252 254 254 253 254 254 253 253 254 256 257 258 259 259 258
222 221 220 218 224 231 237 248 247 238 226 193 91 67 25 321 295 267 258 262 266 269 271 271 273 270 261 268 234 185 199 236 240 251 261 272 227 120 46 20 26 11 7 26 26 33 27 20 22 13 14 7 355 21 37 79 101 275 261 254 250 247 252 251 249 251 253 258 259 257 258 259 258 257 255 254 255 255 256 256 257 258 259 260 260
214 218 220 217 226 230 224 234 220 170 144 125 98 58 21 286 259 262 266 249 232 235 266 278 277 283 286 285 263 208 196 233 233 238 244 262 260 103 57 24 40 23 2 24 23 24 30 22 22 17 14 11 7 15 47 74 44 340 301 261 230 224 238 244 251 254 252 255 259 259 260 260 262 263 259 256 255 254 253 254 256 257 258 260 260
214 216 222 222 230 233 221 201 171 150 150 156 197 222 191 214 235 234 272 276 250 201 193 265 290 308 296 257 260 246 202 221 194 186 258 290 231 107 76 3 53 36 358 19 18 6 26 26 20 19 16 13 12 17 48 58 12 354 344 317 281 249 247 243 246 250 248 248 253 256 257 258 260 263 261 257 256 255 253 254 256 257 259 260 260
213 214 218 220 221 221 205 180 168 163 175 195 215 215 204 213 215 205 239 283 293 264 213 250 288 314 298 282 267 259 0 320 221 155 293 282 236 134 108 226 91 51 352 6 14 359 18 30 23 19 19 18 18 20 36 50 49 37 351 327 318 298 277 257 245 243 247 252 255 257 257 260 260 259 259 257 257 257 257 257 256 257 258 261 263
205 206 207 206 205 198 183 175 174 176 189 205 197 201 220 224 215 217 228 253 287 291 284 255 255 285 275 284 280 273 324 317 306 34 297 294 292 283 221 156 56 30 151 22 0 22 7 12 18 11 22 20 21 31 41 53 63 37 342 337 342 331 314 291 258 247 251 255 259 261 263 266 265 261 260 258 258 258 259 258 256 255 255 257 261
201 195 193 194 193 187 180 179 186 193 203 209 204 217 227 217 211 222 224 223 238 265 275 258 232 240 245 250 259 278 312 312 309 315 257 273 306 306 241 159 53 290 268 337 260 99 3 340 348 335 358 20 19 31 48 68 54 18 13 12 19 17 10 357 292 266 263 261 262 265 266 268 268 265 264 262 262 260 259 258 256 255 255 255 257
195 188 189 192 189 187 185 188 197 204 208 212 220 233 233 203 206 220 203 203 214 245 280 289 271 235 185 238 255 240 255 255 330 332 302 268 253 259 248 218 24 288 300 328 321 21 333 274 329 316 291 304 330 340 16 96 89 40 20 11 20 26 30 30 7 306 283 277 272 270 269 270 269 266 264 263 264 264 262 260 258 258 259 259 258
191 190 192 195 193 192 191 195 202 204 213 226 228 226 223 214 215 217 210 217 213 232 266 276 273 265 114 138 262 236 257 260 164 253 281 300 284 255 250 285 305 263 227 295 307 337 316 282 315 292 274 282 269 256 278 201 139 106 2 350 359 0 4 14 358 340 317 302 290 283 277 273 272 269 266 264 263 263 263 262 260 260 260 260 260
191 195 201 204 201 198 196 199 205 211 222 236 235 223 214 217 224 224 219 223 214 216 235 237 262 295 91 147 255 269 292 297 268 251 265 299 290 294 285 282 302 305 297 299 311 324 308 302 303 283 272 283 274 260 256 244 213 232 301 327 342 336 330 333 330 322 311 303 296 291 283 278 275 271 269 267 264 261 261 261 260 260 260 259 258
198 199 205 210 208 205 204 207 212 220 229 235 237 233 219 208 214 224 220 219 220 216 225 229 235 271 231 180 210 246 228 265 283 298 326 289 281 292 292 310 329 324 310 301 286 281 276 269 270 268 280 290 281 271 267 262 252 256 287 316 326 323 311 303 308 306 299 295 290 286 282 279 277 273 269 266 266 265 262 261 260 259 259 258 257
207 204 205 208 208 208 210 214 217 221 229 229 228 235 233 214 204 216 223 217 220 219 221 227 214 225 236 203 198 244 227 221 272 279 270 277 303 305 297 311 312 298 304 296 262 257 266 271 265 248 250 284 290 280 273 276 265 256 270 301 310 312 301 288 286 286 286 286 283 281 279 277 276 275 273 269 267 266 266 264 262 261 259 257 257
205 207 207 205 204 206 210 214 215 218 225 225 223 226 233 234 216 214 224 219 219 221 221 230 218 220 251 241 218 248 243 217 247 264 262 263 274 281 288 299 298 293 296 292 283 290 299 298 295 286 273 281 291 283 268 275 273 262 263 279 295 301 296 283 276 276 277 279 282 281 280 279 277 276 275 274 273 270 270 270 267 265 263 261 259
203 205 205 204 203 203 204 209 213 217 220 221 224 222 221 229 224 217 223 221 221 227 225 232 232 226 248 259 249 261 273 257 250 259 267 265 256 263 278 286 289 289 286 285 290 295 294 287 275 269 265 264 275 276 267 276 280 274 276 283 289 291 286 280 277 275 272 273 278 282 282 282 280 277 277 277 279 277 275 276 275 274 272 269 266
201 199 199 203 205 201 199 206 213 215 214 215 222 223 219 220 220 218 223 222 222 232 232 231 237 238 241 255 265 274 282 278 268 267 272 276 278 287 293 285 283 285 288 292 283 273 278 274 254 233 234 244 250 257 266 275 278 280 287 290 286 281 278 277 279 279 276 272 273 276 279 280 279 278 278 280 284 286 285 284 283 282 281 279 276
200 197 196 200 204 204 203 205 208 207 207 210 215 219 217 217 218 218 224 225 223 230 237 238 240 242 242 246 255 267 279 285 279 276 277 277 278 283 281 273 278 284 290 295 295 289 284 284 279 240 216 233 237 248 265 273 275 277 283 284 280 277 278 278 278 279 279 277 275 274 273 273 274 274 276 281 287 291 295 297 296 295 292 288 285
202 199 196 196 201 204 203 201 200 201 202 203 206 212 214 217 219 220 225 228 226 227 235 244 246 246 247 245 244 253 265 272 272 269 270 271 269 268 264 260 265 277 287 291 296 300 298 297 302 300 270 248 244 251 258 266 274 276 276 277 276 276 277 277 278 278 280 281 281 278 273 270 269 270 273 278 283 288 293 297 300 300 298 296 294
203 198 192 192 200 202 199 197 196 196 199 199 199 202 208 215 222 225 229 232 232 232 235 243 250 253 254 255 257 259 259 260 263 264 265 269 272 274 274 268 264 268 280 289 284 285 294 297 296 298 303 300 286 273 267 270 277 276 273 273 273 274 274 274 274 275 276 281 283 280 275 271 268 268 271 275 279 284 288 292 295 296 296 295 294
195 188 185 188 195 198 197 197 197 195 196 198 197 199 203 211 220 226 229 231 233 236 238 242 246 249 253 257 260 262 264 264 264 265 266 271 276 280 283 283 279 275 278 285 285 283 290 296 299 298 298 297 291 282 277 276 276 273 271 271 272 273 274 273 274 275 278 282 284 282 280 277 274 272 273 275 278 282 285 288 291 291 291 290 289
188 184 185 188 191 195 197 199 200 197 195 197 197 196 198 205 215 224 228 228 228 232 237 242 247 251 253 257 257 257 260 260 260 263 266 268 271 274 280 286 286 282 279 278 282 290 294 296 298 296 293 292 287 279 277 276 274 272 269 268 270 272 273 273 275 277 278 280 281 281 281 280 280 278 278 280 281 281 283 284 285 286 285 284 283
189 186 185 188 191 194 197 199 200 199 197 197 195 192 193 200 209 219 227 230 228 229 233 238 244 253 255 256 259 259 259 260 261 262 264 266 265 261 263 269 274 276 275 276 282 290 294 296 295 293 294 294 288 282 280 279 276 274 271 268 269 271 271 272 274 275 274 275 277 278 279 280 279 279 280 281 282 283 283 283 282 282 282 280 279
189 189 192 195 196 197 196 196 199 201 199 196 194 192 193 198 204 210 218 226 231 233 237 238 239 245 250 251 254 255 256 260 261 259 258 259 262 267 268 269 272 272 268 269 273 277 285 291 294 293 293 294 292 287 283 281 281 280 276 273 273 273 273 272 274 275 275 275 276 276 276 277 276 276 276 278 282 284 286 286 285 283 281 280 277
197 202 204 204 202 199 197 195 198 201 201 197 195 196 196 199 203 206 210 216 223 228 232 237 239 240 243 245 250 253 255 257 257 256 255 254 258 269 274 272 271 272 269 265 265 268 275 282 286 289 291 293 294 294 289 284 283 282 279 277 276 275 275 274 274 275 275 274 275 275 275 276 275 275 276 278 281 282 284 288 289 288 286 283 280
208 212 210 207 204 199 195 195 197 199 199 199 201 200 200 201 203 206 210 212 214 217 223 231 237 240 243 245 249 253 253 254 254 253 250 251 256 262 268 270 268 268 269 266 264 266 270 275 279 282 285 287 290 293 293 289 284 282 280 279 277 274 274 276 275 275 276 276 276 278 279 279 278 278 278 280 280 278 281 286 289 290 289 286 284
211 213 211 206 202 198 194 192 196 197 196 199 205 203 203 204 203 205 210 211 209 208 214 229 240 245 248 249 253 255 254 253 254 252 250 251 258 262 266 268 267 267 269 270 270 268 265 271 279 283 285 287 286 286 290 291 290 288 285 282 279 276 276 279 279 278 278 278 280 281 282 282 281 280 280 280 279 277 278 281 284 286 287 287 285
211 212 210 203 198 198 197 194 195 195 195 200 204 204 203 205 204 205 208 210 208 203 202 218 239 250 254 255 256 255 254 254 253 252 253 256 262 266 267 267 266 267 267 268 273 271 267 272 281 286 290 291 289 288 291 293 294 293 292 288 281 277 280 282 282 281 280 279 280 280 280 279 279 279 279 279 278 277 277 279 280 281 283 285 283
209 209 207 202 200 201 197 194 194 194 196 199 202 202 203 204 203 204 206 205 205 202 196 201 225 247 257 259 258 255 253 254 253 251 251 256 262 264 265 268 267 265 264 268 273 274 275 279 281 284 289 290 290 292 294 294 293 291 291 289 284 284 287 286 283 282 283 282 282 281 279 278 278 278 277 277 276 276 277 277 277 278 280 280 280
211 210 206 201 202 201 194 192 193 194 196 198 200 201 203 202 200 201 204 202 202 203 197 197 211 234 254 262 262 258 253 249 249 251 250 251 257 259 260 264 267 267 268 271 275 277 280 282 282 283 284 285 286 288 291 293 292 290 290 290 291 292 292 287 282 283 285 284 282 282 281 280 280 279 278 277 277 277 277 277 277 279 279 278 277
213 212 209 202 200 198 193 191 192 194 196 197 198 199 200 199 197 200 204 201 202 204 199 198 206 220 244 261 265 262 259 254 252 253 250 245 247 255 260 263 266 267 267 270 274 280 283 284 285 286 285 285 285 286 289 290 288 288 291 291 292 293 290 286 284 284 285 283 282 281 281 281 281 279 277 275 275 276 278 279 278 278 278 278 277
213 212 210 205 201 197 193 192 194 196 197 196 196 197 196 195 194 199 204 206 210 212 206 203 208 217 235 256 265 266 264 261 257 256 255 252 253 259 262 259 258 260 264 268 272 277 283 284 285 288 289 289 290 292 294 293 291 291 294 294 293 291 289 289 288 287 284 283 284 284 283 282 281 279 277 275 275 276 277 276 275 275 276 277 277
213 213 212 209 207 202 198 196 196 196 196 194 194 196 196 195 194 199 204 208 214 217 216 217 220 226 239 258 269 271 269 271 271 264 257 256 259 264 264 259 256 258 260 262 266 273 278 281 283 287 289 288 290 293 295 296 298 299 299 297 292 290 291 292 291 290 287 286 290 290 288 285 282 280 279 279 278 277 275 273 274 275 274 273 274
213 214 215 213 209 208 210 207 200 196 196 194 193 195 197 194 193 199 203 207 214 220 226 231 237 247 258 267 274 276 274 280 285 275 259 261 266 267 266 262 261 262 260 257 260 266 269 273 279 283 284 286 289 291 293 298 301 304 302 297 292 293 294 291 288 288 288 292 295 292 289 287 285 282 281 279 277 275 274 275 276 276 275 274 275
212 213 216 217 214 214 219 218 209 201 197 193 192 195 196 194 196 201 205 211 221 231 236 233 238 262 278 281 283 284 279 279 286 281 267 267 271 269 266 263 261 262 263 262 263 265 263 263 271 277 280 284 288 290 295 302 304 304 303 299 298 297 293 290 288 289 292 296 295 290 287 286 286 284 281 277 276 277 278 279 280 280 279 278 278
218 220 222 225 223 219 218 217 210 203 197 192 192 194 194 194 198 203 207 211 224 240 241 230 238 271 285 288 289 289 284 279 282 283 277 272 270 267 262 257 256 261 267 269 269 268 262 256 259 269 276 280 285 289 295 301 302 302 301 300 299 296 291 288 288 289 289 287 283 282 282 281 280 281 278 276 279 283 283 282 282 282 281 280 279
227 227 228 230 226 220 217 213 205 199 195 191 191 191 192 193 197 204 206 208 222 240 240 233 250 276 287 291 292 290 286 280 280 284 283 276 267 263 260 256 259 267 272 274 273 269 262 256 259 270 277 279 283 287 292 297 298 298 297 295 291 288 286 286 285 284 284 281 276 274 275 278 280 280 280 282 286 287 286 285 283 282 281 281 279
229 223 223 226 224 217 212 204 192 184 183 186 188 189 192 194 198 206 208 207 220 236 241 242 259 281 297 302 297 292 287 283 285 286 281 272 265 266 268 266 270 276 277 280 279 273 268 267 268 273 279 282 284 288 293 296 295 295 294 290 286 284 284 284 283 283 286 287 284 281 282 286 289 287 287 288 289 288 287 286 284 283 281 279 278
229 222 218 219 218 213 205 196 183 172 177 186 189 191 194 196 199 207 214 216 224 234 239 247 264 289 304 303 291 280 270 269 282 284 274 266 265 269 274 273 275 278 279 282 282 278 274 271 271 279 289 293 293 295 297 298 297 294 284 277 279 283 284 284 285 287 289 291 291 290 290 291 293 292 290 290 288 287 286 284 282 281 280 279 281
233 234 223 210 202 198 198 194 182 170 175 186 193 195 196 197 200 210 218 221 226 232 241 259 272 285 294 290 275 263 261 267 278 278 263 256 259 264 270 272 273 277 281 285 287 286 282 274 276 292 301 301 302 303 301 299 297 288 271 260 265 276 281 282 286 289 290 289 290 291 290 290 292 293 293 292 289 285 282 281 281 280 279 283 286
237 244 229 202 184 183 188 189 182 173 174 186 195 198 197 198 203 213 220 221 223 232 247 263 268 269 275 277 273 268 268 270 271 260 245 247 255 258 264 269 273 279 286 291 292 295 294 286 284 292 296 297 299 300 299 296 292 285 271 260 256 261 266 271 280 287 290 289 291 294 293 292 294 295 294 294 291 286 284 283 283 280 280 286 292